Voltar ao catálogo

NOAA 17 DEB

AtivoPO
NORAD 48183·DEBRIS·🇺🇸 United States

Lançado Jun 24, 2002 de Vandenberg Space Force Base

Loading…

Próximas Passagens (próximas 24 horas)

TLE

AtualizadoSource: Space-Track

Época: Sep 13, 2026, 05:56 UTC

1 48183U 02032Y   26256.24728198  .00004989  00000-0  10417-2 0  9998
2 48183  98.7822 264.4883 0007726 261.5351  98.4972 14.60342888286708

Acompanhe NOAA 17 DEB em tempo real com AllMySat

Download on the App Store